Wetbulb
44.86 42.99 45.87 47.62 47.76 47.63 47.62 47.83 47.88 47.76 48.22 49.25 49.94 50.28 50.44 50.65 51.07 49.95 49.38 52.62 50.27 43.67 46.05 48.66 48.23 45.06 45.75 44.93 39.86 42.78 41.10 41.64 38.74 34.54 33.88 32.39 33.79 36.93 36.55 39.12 38.41 36.72 32.90 31.59 33.22 29.11 27.16 46.55 44.49 38.56 40.25 42.63 42.61 40.95
43.62 42.98 46.88 47.24 47.29 47.14 47.35 47.44 47.59 47.94 48.65 49.49 49.80 49.62 49.93 50.35 50.98 50.41 47.26 52.22 53.05 47.02 46.12 49.22 48.92 49.34 49.18 48.37 46.40 45.60 42.28 44.16 44.78 38.92 39.27 38.13 35.08 37.99 37.45 31.89 43.68 36.87 40.20 37.40 36.80 36.49 44.42 45.64 43.36 44.67 45.33 43.87 42.53 41.16
42.95 45.35 45.23 47.27 46.86 46.79 47.04 47.33 47.48 48.19 48.48 49.59 49.56 49.37 49.76 50.58 50.69 50.12 48.20 49.70 48.93 44.05 43.15 45.70 45.82 49.28 51.67 50.24 51.09 44.43 45.10 47.88 44.65 45.59 42.71 39.87 36.17 39.34 32.93 37.78 39.93 43.59 45.58 40.35 39.51 42.60 42.24 42.51 43.48 45.84 44.69 43.85 43.72 42.18
43.21 45.30 45.26 46.65 46.47 46.51 46.70 46.90 47.68 48.70 48.95 49.39 49.42 49.49 49.75 50.14 50.31 50.84 48.21 49.65 47.87 42.87 36.19 40.70 50.12 47.36 51.29 51.14 50.41 49.64 48.31 47.64 47.00 43.55 38.90 35.28 35.04 41.82 37.26 40.24 39.44 42.66 43.35 41.08 39.33 41.62 41.59 41.87 41.92 43.89 42.71 43.86 42.41 41.69
43.94 45.64 45.85 46.55 46.32 46.44 46.74 47.38 48.25 48.61 48.84 49.24 49.53 49.61 49.77 49.88 50.47 50.22 48.86 49.51 50.06 42.56 34.86 39.95 46.30 48.89 50.06 49.65 48.68 48.50 47.25 44.69 42.79 38.47 33.44 32.57 39.36 40.05 39.56 38.86 37.35 41.74 39.97 36.88 35.82 43.69 41.66 40.30 41.93 43.31 42.21 41.25 41.30 39.79
45.09 45.83 46.25 46.33 46.12 46.56 47.04 47.67 48.13 48.38 48.74 48.73 49.27 49.66 49.67 49.11 49.58 45.86 42.09 47.29 49.42 47.99 40.04 33.99 44.97 45.35 47.48 48.53 47.46 46.77 46.57 44.42 43.59 40.40 39.04 40.40 44.50 40.35 31.78 34.29 42.99 44.75 45.51 46.61 43.66 44.65 42.51 42.10 42.74 42.90 41.19 40.86 40.61 39.59
42.78 45.65 46.36 46.01 46.26 46.83 47.24 47.64 47.96 48.27 48.64 48.67 48.98 49.06 49.07 49.75 47.99 42.83 39.88 45.05 48.39 47.45 38.42 34.86 37.22 45.07 47.73 46.47 44.75 43.78 44.06 42.37 42.01 37.85 36.61 38.67 40.45 41.03 31.76 30.30 42.44 45.41 46.61 45.28 44.62 43.30 40.18 41.35 39.03 40.92 40.92 40.76 41.34 40.44
42.54 45.09 46.13 46.01 46.35 47.04 46.96 47.35 47.76 48.13 48.41 48.55 48.65 49.10 49.17 49.02 48.66 44.53 46.63 49.21 50.33 44.81 41.62 33.47 33.69 40.70 46.85 40.25 38.90 43.46 39.22 38.86 38.76 37.81 38.83 38.35 40.31 39.27 31.70 41.00 44.09 45.89 46.28 44.86 43.64 44.45 41.99 40.78 40.80 40.00 39.93 39.40 37.66 37.42
42.41 45.81 45.67 45.85 46.08 46.65 46.56 46.97 47.51 48.38 48.39 48.69 48.79 48.99 48.85 47.58 43.40 43.66 47.94 47.16 48.57 42.38 33.80 32.96 32.38 30.85 44.46 42.93 41.00 40.34 39.54 31.08 38.50 31.56 37.14 38.30 35.13 31.47 39.61 42.10 44.23 45.63 44.13 41.25 42.82 42.16 41.30 39.76 39.21 39.37 39.05 38.10 36.20 33.90
44.77 45.51 45.61 45.20 45.39 46.01 46.51 47.03 47.75 48.27 48.73 48.89 47.87 42.71 33.77 44.94 48.07 47.32 42.88 37.35 36.51 37.55 39.17 32.90 38.52 34.87 40.24 40.12 37.70 35.17 36.03 30.59 32.21 35.31 40.26 32.06 35.29 42.09 43.25 44.42 46.59 44.58 44.22 43.51 38.67 37.29 38.49 38.41 38.83 38.82 38.88 37.81 35.50 33.59
45.36 45.60 45.35 45.33 45.99 46.24 46.88 47.39 47.94 48.54 48.45 45.44 40.67 38.30 44.52 47.96 42.72 37.98 31.16 30.15 29.97 30.09 34.48 36.74 39.00 36.84 41.77 34.55 32.04 38.81 34.57 32.03 28.33 36.08 34.58 31.11 31.97 40.96 42.62 41.70 42.57 43.45 43.38 42.34 42.40 41.74 41.51 41.14 39.32 37.55 36.23 35.21 33.07 30.46
45.81 45.79 45.55 45.79 46.36 46.67 47.28 47.71 48.19 47.62 45.79 44.64 43.87 45.97 44.39 39.48 33.41 29.60 31.08 32.04 28.34 30.25 34.51 35.66 38.41 39.93 40.73 41.18 37.51 34.35 32.31 33.83 28.30 37.30 29.21 27.67 38.26 40.96 40.40 38.95 38.46 39.33 39.82 38.94 39.51 38.03 39.43 39.67 38.58 36.61 33.30 30.58 31.20 30.78
45.47 45.70 45.71 46.45 46.67 47.06 47.42 47.80 47.26 47.75 47.95 47.02 42.58 38.55 34.60 32.75 24.65 26.57 26.21 26.47 26.22 33.68 35.65 36.62 37.58 38.64 40.52 39.19 34.04 31.51 30.52 30.39 34.55 29.37 32.19 32.79 40.53 41.23 40.11 38.17 36.60 37.67 37.37 36.18 34.40 33.97 33.69 33.15 33.33 32.82 31.95 31.87 31.31 28.44
45.13 45.03 45.64 46.54 46.60 46.85 47.58 47.19 47.61 46.90 44.34 36.02 30.81 31.48 26.29 28.30 27.65 28.41 30.22 30.43 32.95 36.52 37.06 37.35 36.54 37.18 36.09 34.11 31.11 29.24 32.01 32.65 25.48 24.78 28.32 37.44 39.30 38.73 36.63 35.56 35.90 33.65 33.02 32.23 31.95 32.29 31.90 31.66 31.20 31.62 31.68 31.54 30.67 27.22
44.81 44.46 44.99 46.13 46.56 46.74 46.38 46.74 46.70 46.36 42.34 35.38 32.95 23.33 29.03 31.25 32.18 32.83 34.87 34.39 36.70 39.86 38.31 37.73 35.15 35.58 31.15 31.11 31.75 34.04 32.06 26.25 28.00 27.96 32.46 34.76 37.61 36.60 34.79 34.77 34.89 32.64 31.77 31.51 31.81 31.09 30.59 30.62 30.53 30.01 30.90 31.22 30.47 28.85
44.93 44.31 44.16 45.65 46.31 46.33 46.15 45.56 45.29 44.43 40.86 37.97 35.17 29.43 32.59 29.96 28.97 30.47 33.99 34.58 39.80 38.85 39.42 39.36 34.18 30.60 31.38 31.71 30.06 29.43 27.94 27.10 28.87 33.08 34.79 38.09 37.78 37.78 36.12 36.47 36.47 35.16 32.75 31.97 32.06 31.47 31.06 30.05 29.82 29.70 30.52 30.52 30.34 30.16
43.20 40.72 45.35 45.51 44.89 44.61 44.32 42.47 41.82 37.21 34.96 33.54 30.38 36.62 34.67 33.83 32.53 33.68 36.37 37.36 43.00 38.95 34.52 35.34 31.74 31.55 34.56 29.14 29.20 32.12 28.41 30.59 32.96 35.32 36.69 36.09 37.33 37.48 37.29 35.28 35.22 33.84 34.18 33.44 32.29 32.15 31.02 30.74 30.10 29.41 28.56 28.95 28.23 27.65
40.69 43.92 44.95 44.00 43.45 42.12 40.15 40.02 37.38 35.74 30.57 31.75 32.28 32.75 34.29 35.37 35.50 35.66 37.07 39.08 38.81 37.13 37.03 33.36 36.42 32.83 31.61 30.55 28.66 30.45 34.79 36.50 36.07 33.63 34.02 37.56 38.34 38.64 38.61 37.67 36.69 36.73 35.31 34.08 32.44 31.47 30.98 29.82 29.21 28.65 28.92 28.40 28.26 28.28
42.43 43.63 43.20 43.56 42.15 36.83 33.86 35.38 38.08 32.93 33.94 35.74 37.02 36.19 35.50 35.12 37.05 37.37 39.59 42.66 42.87 42.16 38.37 35.21 32.92 28.05 31.21 34.48 33.23 30.05 34.50 32.50 31.04 33.47 35.56 37.52 38.31 37.78 37.70 37.49 37.31 36.76 35.62 35.33 33.81 31.56 31.69 31.85 30.75 29.90 29.09 28.88 28.25 28.29
43.96 43.69 43.84 43.68 42.78 35.74 32.94 34.25 40.10 36.86 33.15 31.96 35.87 33.95 34.28 35.11 35.68 37.49 37.75 38.63 40.25 37.20 31.29 29.55 28.75 35.89 33.12 35.07 35.04 33.62 33.09 33.06 32.88 31.00 29.89 31.41 36.31 36.62 35.96 35.80 35.14 36.23 35.32 36.26 35.58 33.01 32.06 30.85 30.54 30.16 30.04 29.57 28.85 27.64
41.70 41.66 41.92 41.05 39.00 38.14 35.29 33.86 34.29 34.74 33.80 31.60 31.18 32.43 31.11 31.90 29.94 28.37 30.39 35.07 34.69 33.51 33.35 29.74 35.98 37.38 37.26 36.39 36.86 35.66 35.35 35.10 33.02 33.36 32.81 30.71 34.94 36.44 35.75 35.84 36.04 34.66 34.05 33.52 31.50 29.78 30.24 30.10 29.56 30.56 30.13 27.71 28.05 28.30
39.43 41.07 37.19 38.14 35.53 36.94 36.02 37.81 33.49 33.26 33.22 33.90 32.55 33.24 31.44 29.00 28.22 28.30 30.67 29.86 29.44 33.44 28.36 33.53 35.49 33.89 33.57 34.49 34.75 35.79 35.80 34.88 34.23 32.23 31.18 32.95 34.03 34.33 34.31 34.97 34.44 33.28 32.17 30.14 31.00 31.13 30.88 30.32 30.62 30.97 30.00 28.83 29.95 30.02
39.64 37.48 35.22 34.49 31.38 32.57 32.85 36.78 31.97 33.48 30.27 30.47 30.80 29.58 30.66 30.85 31.67 34.49 30.97 32.77 32.62 27.09 29.48 33.18 32.11 33.63 33.63 35.50 36.07 35.66 35.38 34.67 32.94 32.35 34.33 35.06 34.66 34.93 34.75 34.02 33.37 31.79 31.16 30.55 32.59 32.32 30.90 28.25 29.41 30.49 30.17 29.94 29.64 30.72
37.55 33.79 31.28 30.70 31.27 28.58 33.36 28.00 32.92 32.74 31.23 30.58 26.91 26.44 30.43 31.23 33.92 28.70 26.82 27.33 27.64 29.81 30.31 31.41 34.50 34.37 34.56 34.29 33.42 35.16 35.17 37.37 36.29 36.05 36.41 35.59 34.16 33.98 34.45 32.06 31.94 32.03 32.83 33.01 32.65 31.86 30.98 30.22 31.21 32.18 31.09 31.00 30.93 30.26
24.54 23.51 24.55 25.00 31.36 24.72 22.64 28.18 28.93 29.70 27.37 29.66 25.36 23.37 28.86 30.65 23.42 26.66 26.30 27.42 30.20 31.14 31.80 32.75 34.52 34.85 34.47 34.33 34.72 35.59 37.98 37.88 36.23 34.87 36.26 36.94 33.84 33.48 32.65 32.80 32.30 32.65 34.21 32.73 32.13 31.36 31.46 32.29 31.96 31.52 31.44 31.31 30.21 29.80
15.77 21.89 21.07 22.66 22.30 22.59 24.98 18.37 18.20 20.57 28.55 27.06 27.39 28.11 27.85 28.43 25.08 21.36 28.12 28.29 27.36 30.21 32.46 32.12 33.57 34.07 34.67 35.96 34.70 34.94 36.06 38.52 37.65 35.05 34.73 35.51 35.17 33.84 32.14 31.13 30.67 30.49 32.16 32.96 32.21 31.84 31.35 31.81 31.74 31.12 31.59 31.32 31.21 31.26
12.78 14.98 26.98 29.94 29.55 28.85 24.04 26.36 28.17 24.78 17.76 18.15 25.77 24.35 27.34 23.42 21.57 27.37 29.28 29.63 29.06 29.42 32.16 35.04 36.33 35.82 35.21 35.14 36.15 37.64 38.59 39.12 37.51 36.00 36.58 36.09 35.56 34.85 33.38 31.23 30.21 30.39 31.90 33.28 33.17 32.74 31.81 31.55 31.40 31.71 31.72 32.01 32.20 31.84
25.83 26.20 15.49 22.61 23.05 27.55 17.80 20.75 19.49 19.62 25.74 28.35 26.18 18.61 21.11 22.02 22.86 29.05 29.72 30.73 30.67 32.00 35.06 36.12 36.93 36.79 36.32 36.54 37.10 37.02 35.80 34.78 33.74 32.95 32.73 32.03 32.11 32.13 31.86 32.36 32.57 30.41 32.03 33.39 32.99 32.80 32.22 31.03 30.97 30.60 30.36 30.26 31.28 31.62
21.06 27.15 24.75 14.65 16.06 23.10 21.00 20.67 23.50 26.29 27.33 27.82 20.79 20.31 23.37 27.29 29.86 30.13 30.91 32.53 32.28 35.61 34.87 34.43 34.03 34.41 34.10 34.52 34.70 34.33 33.92 33.08 31.82 28.95 27.98 27.41 26.29 27.51 30.28 31.58 32.05 32.97 33.17 32.96 31.91 32.51 31.99 31.76 30.98 30.47 31.06 31.71 31.77 31.53
22.97 27.30 18.72 10.96 10.94 15.82 17.81 23.29 24.57 25.41 28.05 26.30 25.25 24.86 24.52 27.87 29.56 30.85 30.94 32.44 33.92 33.20 33.38 33.98 33.42 33.48 32.50 32.36 31.12 30.17 30.09 29.95 32.88 31.02 28.01 26.74 26.76 27.10 27.47 29.06 30.88 31.51 31.99 32.15 31.15 30.83 30.75 31.18 30.52 30.95 30.61 29.92 29.63 29.09
26.17 25.68 20.86 19.31 14.11 19.26 21.68 21.57 21.94 23.83 26.38 25.98 19.36 17.84 20.04 21.30 28.93 30.32 29.89 31.72 33.39 33.39 33.21 32.59 32.67 33.20 32.48 31.67 31.10 29.64 28.22 28.84 29.32 30.16 29.68 28.48 28.39 26.99 26.03 27.30 30.76 31.18 31.19 30.85 31.27 30.72 29.61 28.25 27.43 27.61 28.01 27.25 26.63 26.50
19.29 16.55 16.41 13.12 16.11 16.67 20.77 18.24 18.16 17.79 16.44 15.84 16.47 13.63 17.09 23.02 25.82 27.94 29.53 32.62 33.05 32.82 33.24 33.23 32.66 31.74 30.01 28.34 27.60 28.00 29.87 29.87 28.82 28.99 28.91 28.88 28.84 28.38 29.00 29.80 30.20 30.63 30.08 29.61 29.47 29.00 25.64 26.88 27.74 27.43 27.21 26.23 25.96 25.25
20.98 15.68 14.30 14.05 14.30 15.62 16.39 18.27 20.21 19.10 15.47 16.52 15.79 16.27 18.21 19.86 19.99 26.07 28.84 30.44 33.38 33.91 33.45 33.27 32.45 30.70 29.50 28.63 28.56 28.70 29.14 28.69 27.52 27.79 27.87 27.75 27.66 28.05 29.49 29.69 29.66 29.48 28.91 28.70 28.69 28.69 27.37 26.84 26.37 26.19 25.78 25.36 24.91 20.13
MSLP
1005.11 1005.68 1006.02 1006.56 1006.90 1008.04 1009.16 1010.12 1010.98 1011.69 1012.45 1013.05 1013.54 1014.11 1014.66 1015.19 1015.62 1015.99 1015.44 1014.85 1014.99 1015.88 1015.78 1015.05 1014.39 1014.37 1014.49 1014.77 1015.38 1015.84 1016.03 1016.50 1017.25 1018.15 1018.60 1018.56 1018.04 1017.01 1016.34 1015.66 1015.51 1016.36 1017.44 1018.38 1019.15 1019.43 1018.89 1017.84 1017.55 1018.00 1019.09 1019.49 1020.04 1020.67
1004.40 1005.20 1005.07 1005.97 1006.67 1007.76 1008.75 1009.74 1010.73 1011.39 1012.12 1012.71 1013.33 1013.90 1014.56 1015.07 1015.30 1015.59 1015.55 1014.61 1014.45 1015.63 1016.23 1015.55 1015.09 1014.91 1014.87 1014.99 1015.23 1015.96 1016.79 1017.18 1017.73 1018.52 1018.97 1018.91 1018.70 1017.98 1017.36 1016.91 1016.13 1016.80 1016.95 1017.65 1018.58 1018.98 1018.58 1018.32 1018.15 1018.44 1018.83 1019.44 1020.17 1020.92
1004.27 1003.89 1004.47 1005.44 1006.55 1007.49 1008.54 1009.57 1010.44 1011.07 1011.86 1012.49 1013.13 1013.82 1014.41 1014.86 1015.08 1015.21 1015.27 1014.87 1014.83 1016.11 1016.58 1016.18 1015.88 1015.54 1014.95 1015.02 1014.97 1015.88 1016.99 1017.20 1017.75 1018.15 1019.03 1019.63 1019.56 1019.03 1018.65 1018.07 1017.35 1016.96 1016.83 1017.64 1018.40 1019.30 1019.07 1019.03 1018.91 1018.84 1019.12 1019.56 1020.18 1020.85
1003.49 1003.77 1004.59 1005.01 1006.15 1007.39 1008.41 1009.42 1010.20 1010.86 1011.57 1012.33 1012.91 1013.62 1014.21 1014.62 1014.81 1014.88 1015.03 1014.99 1015.18 1016.47 1017.24 1017.18 1016.14 1016.08 1015.75 1015.43 1015.38 1015.61 1016.45 1017.16 1017.93 1018.84 1019.96 1020.32 1020.17 1019.34 1019.20 1018.60 1018.11 1017.65 1017.37 1017.90 1019.27 1019.72 1019.90 1019.69 1019.56 1019.60 1019.89 1020.22 1020.93 1021.71
1003.13 1003.74 1004.47 1005.08 1006.26 1007.35 1008.31 1009.20 1009.99 1010.63 1011.47 1012.14 1012.85 1013.51 1014.05 1014.47 1014.62 1014.62 1014.72 1015.08 1015.05 1015.80 1017.39 1017.64 1017.01 1016.76 1016.34 1016.26 1016.43 1016.62 1017.17 1017.93 1018.98 1020.07 1020.96 1020.81 1020.09 1019.77 1019.58 1019.33 1018.87 1017.87 1017.86 1018.39 1018.77 1018.86 1019.60 1020.06 1019.93 1020.11 1020.56 1021.11 1021.58 1022.13
1003.01 1003.67 1004.31 1005.41 1006.39 1007.38 1008.23 1009.16 1009.85 1010.64 1011.44 1012.23 1012.86 1013.43 1013.92 1014.38 1014.53 1014.65 1015.72 1015.45 1015.33 1015.37 1017.02 1018.25 1017.93 1017.39 1017.11 1017.22 1017.49 1017.83 1018.22 1018.90 1019.55 1020.48 1020.90 1020.51 1019.74 1019.76 1020.15 1019.88 1018.37 1017.99 1017.94 1017.87 1018.40 1018.96 1019.50 1020.10 1020.43 1020.75 1021.29 1021.84 1022.27 1022.76
1003.46 1003.81 1004.39 1005.42 1006.42 1007.34 1008.30 1009.04 1009.86 1010.58 1011.49 1012.24 1012.95 1013.49 1013.99 1014.38 1014.70 1015.45 1016.11 1016.03 1015.59 1015.62 1017.27 1018.93 1018.71 1017.97 1017.65 1018.02 1018.60 1019.07 1019.28 1020.06 1020.44 1021.03 1021.09 1020.89 1020.35 1020.03 1020.23 1020.03 1018.36 1017.73 1017.81 1018.11 1018.48 1019.34 1020.65 1020.89 1021.43 1021.71 1021.95 1022.62 1023.13 1023.76
1003.67 1004.11 1004.68 1005.63 1006.63 1007.50 1008.44 1009.27 1010.00 1010.87 1011.35 1012.31 1013.09 1013.59 1014.09 1014.32 1015.22 1015.86 1016.00 1015.61 1015.40 1016.56 1017.78 1019.35 1019.60 1018.86 1018.29 1019.06 1019.84 1020.00 1020.72 1021.13 1021.34 1021.59 1021.33 1021.09 1020.62 1020.38 1020.34 1019.06 1018.36 1017.99 1018.23 1019.06 1019.59 1019.69 1020.32 1021.47 1021.98 1022.56 1022.93 1023.45 1024.38 1025.16
1004.06 1004.24 1005.11 1006.00 1006.94 1007.75 1008.66 1009.51 1010.26 1010.98 1011.75 1012.62 1013.23 1013.61 1014.03 1014.82 1015.70 1016.19 1016.01 1015.87 1016.05 1017.34 1018.83 1019.58 1019.80 1019.61 1018.91 1019.51 1020.24 1020.67 1021.14 1022.07 1022.09 1021.89 1021.61 1021.36 1021.15 1020.67 1019.57 1019.14 1018.51 1018.50 1018.60 1019.69 1020.57 1020.89 1021.58 1022.15 1022.86 1023.39 1023.85 1024.67 1025.41 1026.48
1004.07 1004.68 1005.47 1006.39 1007.26 1008.16 1008.90 1009.69 1010.52 1011.45 1012.17 1012.86 1013.28 1014.31 1015.68 1015.69 1015.71 1015.96 1016.45 1017.13 1017.69 1018.39 1018.76 1019.45 1019.34 1019.58 1019.43 1020.00 1020.98 1021.56 1021.72 1022.41 1022.62 1021.96 1021.38 1021.32 1021.07 1020.19 1019.74 1019.29 1018.93 1019.06 1019.33 1020.09 1021.24 1022.33 1022.79 1023.24 1023.63 1024.20 1024.77 1025.48 1026.27 1027.17
1004.29 1005.02 1005.99 1006.79 1007.56 1008.44 1009.14 1010.01 1010.88 1011.79 1012.54 1013.08 1014.20 1015.22 1015.95 1015.89 1016.30 1017.79 1018.82 1019.38 1019.90 1019.97 1019.40 1019.16 1019.08 1019.33 1019.49 1020.12 1021.14 1021.51 1021.98 1022.43 1022.70 1022.02 1021.79 1021.68 1021.42 1020.91 1020.65 1020.37 1020.15 1020.17 1020.64 1021.08 1021.12 1021.89 1022.70 1023.25 1024.15 1024.95 1025.82 1026.54 1027.34 1028.19
1004.82 1005.46 1006.33 1007.18 1007.91 1008.79 1009.46 1010.32 1011.08 1011.71 1012.08 1012.55 1013.46 1015.00 1016.11 1016.86 1018.36 1019.27 1019.80 1020.00 1019.96 1019.34 1019.12 1018.86 1018.82 1018.93 1019.46 1019.78 1020.95 1021.97 1022.28 1022.57 1022.40 1022.00 1022.08 1021.95 1021.57 1021.53 1021.52 1021.86 1021.96 1022.04 1022.14 1022.50 1022.74 1023.33 1023.88 1024.50 1025.11 1025.80 1026.69 1027.58 1028.38 1029.11
1005.52 1006.12 1006.89 1007.53 1008.42 1009.17 1009.97 1010.73 1010.98 1011.04 1011.89 1012.70 1014.05 1015.73 1016.66 1018.13 1018.68 1019.09 1019.27 1019.24 1019.16 1018.56 1018.44 1018.44 1018.90 1019.09 1019.57 1020.36 1021.58 1022.31 1022.79 1022.97 1022.35 1022.57 1022.11 1021.88 1021.76 1022.18 1022.51 1022.96 1023.44 1023.80 1023.96 1024.18 1024.72 1025.04 1025.45 1026.09 1026.62 1027.04 1027.81 1028.61 1029.23 1029.98
1006.19 1006.97 1007.62 1007.97 1008.90 1009.66 1010.14 1010.71 1011.24 1012.07 1012.80 1014.32 1015.26 1016.33 1016.84 1017.70 1017.80 1017.48 1017.45 1017.36 1017.23 1017.34 1017.69 1018.08 1019.00 1019.33 1020.11 1020.94 1021.63 1022.23 1022.46 1022.42 1022.80 1022.93 1022.42 1022.12 1022.27 1022.83 1023.30 1023.89 1024.26 1025.07 1025.44 1025.63 1026.03 1026.39 1026.75 1027.18 1027.86 1028.45 1028.96 1029.42 1029.92 1030.65
1007.03 1007.92 1008.50 1009.01 1009.72 1010.42 1010.84 1011.16 1011.98 1011.99 1012.38 1013.39 1014.13 1015.74 1016.44 1016.35 1016.57 1016.52 1016.51 1016.62 1016.60 1016.69 1017.28 1018.23 1019.12 1019.67 1020.63 1021.20 1021.49 1021.79 1022.36 1022.39 1022.25 1022.09 1022.05 1022.19 1022.63 1023.27 1023.89 1024.51 1025.10 1025.80 1026.27 1026.57 1026.92 1027.25 1027.77 1028.22 1028.75 1029.32 1029.77 1030.16 1030.62 1031.10
1007.88 1008.69 1009.35 1009.64 1010.48 1011.04 1011.65 1011.70 1012.31 1012.59 1013.03 1013.73 1014.55 1015.32 1015.80 1016.33 1016.74 1016.55 1016.44 1016.55 1016.19 1016.63 1017.20 1017.98 1019.20 1020.05 1020.52 1020.77 1021.28 1021.39 1021.85 1021.76 1021.64 1021.72 1021.86 1022.41 1022.99 1023.53 1024.19 1024.79 1025.42 1026.04 1026.50 1026.93 1027.39 1027.85 1028.39 1028.92 1029.38 1029.82 1030.26 1030.69 1031.13 1031.48
1008.16 1009.29 1009.96 1010.77 1011.43 1011.74 1012.14 1013.07 1013.49 1014.30 1014.58 1014.60 1014.94 1014.93 1015.49 1015.99 1016.26 1016.25 1015.98 1016.08 1015.83 1016.65 1017.68 1018.12 1018.99 1019.37 1019.95 1020.60 1021.13 1021.00 1021.23 1021.14 1021.41 1021.85 1022.14 1022.53 1023.12 1023.71 1024.29 1024.94 1025.46 1026.03 1026.54 1027.07 1027.49 1028.09 1028.71 1029.31 1029.78 1030.15 1030.55 1031.15 1031.46 1031.80
1009.49 1010.25 1010.83 1011.36 1012.18 1012.93 1014.12 1014.62 1014.94 1015.32 1015.56 1015.24 1015.49 1015.88 1016.12 1016.37 1016.30 1016.26 1016.10 1015.96 1016.40 1016.89 1017.49 1017.66 1017.98 1018.93 1019.51 1020.20 1020.76 1020.87 1021.28 1021.58 1021.96 1022.46 1022.74 1023.07 1023.46 1023.92 1024.36 1024.96 1025.56 1026.04 1026.63 1027.23 1027.72 1028.33 1028.94 1029.43 1029.84 1030.33 1030.80 1031.35 1031.76 1032.11
1010.36 1011.15 1011.84 1012.39 1013.11 1014.23 1015.25 1015.73 1015.79 1016.03 1016.17 1016.11 1016.15 1016.35 1016.76 1016.94 1016.90 1016.68 1016.46 1016.36 1016.42 1016.89 1017.40 1018.04 1018.80 1019.65 1019.92 1019.95 1020.39 1020.88 1021.35 1021.88 1022.64 1023.17 1023.41 1023.51 1023.75 1024.15 1024.60 1025.12 1025.61 1026.13 1026.73 1027.32 1027.94 1028.50 1028.97 1029.35 1029.80 1030.37 1030.96 1031.50 1031.92 1032.21
1011.28 1011.90 1012.56 1012.83 1013.88 1014.87 1015.97 1016.17 1016.15 1016.27 1016.45 1016.73 1016.95 1017.60 1017.98 1018.01 1017.88 1017.67 1017.31 1017.29 1017.46 1017.87 1018.69 1019.47 1020.00 1020.00 1020.08 1020.06 1020.14 1020.72 1021.43 1022.10 1022.77 1023.67 1024.24 1024.30 1024.24 1024.56 1024.97 1025.34 1025.81 1026.19 1026.89 1027.39 1027.95 1028.47 1029.08 1029.73 1030.13 1030.55 1031.11 1031.50 1031.90 1032.32
1012.24 1013.24 1013.42 1014.05 1014.74 1015.31 1015.90 1016.17 1016.11 1016.21 1016.52 1017.21 1017.69 1018.01 1018.53 1018.58 1018.81 1018.85 1018.97 1018.64 1018.66 1019.39 1019.98 1020.21 1020.33 1020.37 1020.28 1020.22 1020.31 1020.87 1021.63 1022.10 1022.64 1023.06 1023.65 1024.46 1024.49 1024.71 1025.19 1025.54 1026.00 1026.76 1027.25 1027.70 1028.23 1028.95 1029.27 1029.82 1030.20 1030.68 1031.17 1031.65 1031.92 1032.30
1012.99 1013.49 1014.84 1015.51 1015.54 1015.46 1015.77 1016.11 1016.18 1016.49 1017.07 1017.70 1018.07 1018.66 1019.49 1019.71 1019.64 1019.54 1019.47 1019.66 1020.12 1020.19 1020.40 1020.54 1020.65 1020.96 1020.99 1021.00 1021.05 1021.23 1021.58 1022.21 1022.76 1023.30 1023.74 1024.12 1024.41 1024.86 1025.38 1025.86 1026.45 1027.03 1027.52 1028.05 1028.54 1029.05 1029.61 1030.00 1030.37 1030.89 1031.39 1031.82 1032.08 1032.39
1013.26 1014.07 1015.43 1016.10 1016.11 1016.09 1016.83 1016.23 1016.59 1017.10 1017.72 1018.22 1018.58 1019.27 1019.60 1019.78 1019.80 1019.66 1020.12 1020.34 1020.26 1020.25 1020.26 1020.50 1020.66 1020.85 1020.99 1021.02 1021.14 1021.49 1021.84 1022.31 1022.92 1023.33 1023.73 1024.15 1024.45 1024.95 1025.48 1026.01 1026.46 1027.04 1027.71 1028.35 1028.65 1029.32 1029.89 1030.32 1030.72 1031.16 1031.49 1031.90 1032.22 1032.51
1013.81 1015.08 1016.24 1016.76 1016.96 1017.41 1017.08 1016.94 1016.77 1017.35 1018.13 1018.50 1018.93 1019.40 1019.73 1020.00 1020.12 1020.51 1020.79 1020.60 1019.86 1020.04 1020.30 1020.44 1020.65 1021.01 1021.25 1021.33 1021.48 1021.61 1021.94 1022.19 1022.79 1023.28 1023.60 1024.08 1024.79 1025.33 1025.61 1026.18 1026.68 1027.22 1027.67 1028.35 1028.90 1029.53 1030.05 1030.54 1030.91 1031.36 1031.81 1032.15 1032.48 1032.68
1015.04 1016.59 1016.72 1017.21 1017.43 1017.88 1017.95 1017.48 1017.55 1017.90 1018.33 1018.54 1019.10 1019.69 1020.00 1020.20 1020.55 1020.72 1020.52 1019.55 1019.64 1019.88 1020.09 1020.36 1020.48 1020.55 1020.80 1021.11 1021.43 1021.73 1021.90 1022.06 1022.58 1023.23 1023.76 1024.03 1024.90 1025.60 1026.20 1026.64 1027.08 1027.49 1027.80 1028.47 1029.31 1029.75 1030.24 1030.69 1031.12 1031.54 1031.86 1032.17 1032.50 1032.85
1016.07 1016.86 1016.99 1016.89 1017.36 1017.47 1017.64 1018.19 1018.23 1018.43 1018.66 1019.10 1019.41 1019.64 1019.80 1020.22 1020.55 1020.15 1019.18 1018.46 1018.94 1019.14 1019.34 1019.68 1019.83 1020.19 1020.52 1020.74 1021.10 1021.48 1021.80 1022.15 1022.64 1023.27 1023.96 1024.27 1024.83 1025.43 1026.14 1026.76 1027.42 1028.15 1028.07 1028.29 1028.99 1029.64 1030.35 1030.82 1031.17 1031.47 1031.82 1032.12 1032.43 1032.76
1016.80 1017.00 1016.92 1016.70 1016.71 1016.99 1017.54 1017.75 1018.01 1018.45 1018.82 1019.12 1019.38 1019.81 1020.01 1020.18 1019.83 1018.76 1018.18 1018.22 1018.46 1018.54 1018.76 1019.16 1019.41 1019.70 1020.10 1020.60 1020.98 1021.37 1021.79 1022.29 1022.80 1023.40 1024.08 1024.64 1025.09 1025.53 1025.87 1026.37 1027.12 1027.73 1028.06 1028.33 1028.84 1029.58 1030.19 1030.65 1031.10 1031.48 1031.87 1032.20 1032.47 1032.78
1017.19 1017.15 1017.42 1017.52 1017.56 1017.71 1018.24 1018.35 1018.53 1018.46 1018.43 1018.32 1018.94 1019.67 1019.51 1019.47 1018.80 1018.47 1018.29 1018.23 1018.22 1018.46 1018.79 1019.11 1019.38 1019.70 1020.08 1020.57 1021.03 1021.56 1022.12 1022.83 1023.50 1024.10 1024.79 1025.47 1025.81 1026.12 1026.37 1026.73 1027.19 1027.81 1028.17 1028.51 1029.06 1029.64 1030.24 1030.77 1031.17 1031.53 1031.91 1032.31 1032.66 1032.94
1017.59 1017.51 1017.77 1018.59 1018.68 1018.56 1018.55 1018.57 1018.45 1018.37 1018.34 1018.34 1018.90 1019.21 1019.10 1019.00 1019.00 1018.84 1018.70 1018.58 1018.54 1018.64 1018.90 1019.25 1019.70 1020.01 1020.57 1021.07 1021.46 1022.02 1022.53 1023.02 1023.52 1024.29 1025.06 1025.96 1026.60 1027.10 1026.95 1027.21 1027.73 1028.06 1028.42 1028.94 1029.41 1029.79 1030.30 1030.65 1031.18 1031.68 1032.08 1032.52 1032.84 1033.14
1017.82 1017.61 1018.54 1019.12 1019.59 1019.46 1019.18 1018.82 1018.85 1018.68 1018.52 1018.71 1019.02 1019.48 1019.57 1019.40 1019.22 1019.09 1018.91 1018.74 1018.79 1018.82 1018.97 1019.35 1019.85 1020.22 1020.84 1021.32 1021.99 1022.73 1023.16 1023.08 1023.23 1023.73 1024.81 1025.67 1026.27 1026.74 1027.07 1027.35 1027.84 1028.30 1028.72 1029.25 1029.87 1030.39 1030.72 1031.27 1031.83 1032.15 1032.53 1032.91 1033.24 1033.61
1017.78 1017.95 1018.79 1019.61 1020.04 1019.85 1019.36 1019.12 1018.89 1018.95 1019.16 1019.39 1019.69 1020.12 1020.18 1019.80 1019.24 1018.93 1018.75 1018.59 1018.78 1019.00 1019.26 1019.73 1020.15 1020.60 1021.04 1021.52 1021.97 1022.63 1023.48 1023.71 1023.69 1023.99 1024.42 1025.33 1026.10 1026.76 1027.20 1027.55 1028.04 1028.36 1028.88 1029.51 1030.04 1030.52 1031.04 1031.57 1032.03 1032.49 1032.81 1033.23 1033.70 1034.12
1018.51 1018.73 1019.30 1020.38 1020.60 1020.04 1019.79 1019.87 1019.80 1019.84 1020.01 1020.15 1020.41 1020.27 1020.46 1020.16 1019.77 1019.07 1018.59 1018.53 1018.72 1018.90 1019.18 1019.61 1020.13 1020.75 1021.11 1021.52 1021.87 1022.17 1022.54 1023.45 1023.95 1024.30 1024.72 1025.44 1026.22 1026.89 1027.41 1027.91 1028.52 1028.88 1029.31 1029.74 1030.21 1030.72 1031.24 1031.74 1032.15 1032.68 1033.12 1033.56 1034.08 1034.58
1019.07 1019.15 1019.55 1020.33 1020.54 1020.63 1020.38 1020.18 1020.15 1020.47 1020.48 1020.69 1020.53 1020.48 1020.45 1020.15 1019.55 1018.44 1018.09 1018.08 1018.13 1018.28 1018.87 1019.43 1019.94 1020.58 1021.05 1021.52 1022.00 1022.44 1022.85 1023.50 1024.08 1024.52 1024.96 1025.52 1026.07 1026.79 1027.52 1028.17 1028.62 1029.07 1029.61 1030.06 1030.57 1030.98 1031.42 1031.80 1032.41 1032.92 1033.47 1034.02 1034.60 1035.34
Wind_Speed
21 14 23 23 26 25 24 21 19 17 15 14 13 13 12 12 12 5 4 3 4 3 4 7 5 4 4 3 5 3 6 5 4 3 3 3 2 3 2 2 4 4 5 2 3 4 1 3 3 6 6 3 5 3
17 20 20 24 24 24 22 20 18 18 16 15 15 14 15 14 13 6 2 2 2 5 3 2 3 3 5 2 5 4 5 2 3 4 1 1 2 2 1 0 5 3 5 6 5 5 0 4 4 3 4 5 5 5
19 18 13 29 27 23 22 20 19 17 18 16 17 17 15 15 11 8 2 2 4 4 5 5 4 6 6 5 2 6 1 3 2 3 3 2 4 2 2 2 2 5 3 4 5 2 4 4 3 3 3 3 5 6
17 18 16 28 25 23 21 19 18 19 19 17 18 16 14 12 10 5 2 2 4 4 5 5 2 4 3 7 8 5 6 5 5 4 4 3 3 1 2 2 3 3 4 2 5 3 2 3 2 4 3 5 8 6
17 18 17 22 23 22 21 18 18 19 19 17 17 16 13 11 9 3 3 3 1 6 5 2 2 5 3 5 8 8 6 4 3 4 4 0 2 3 2 3 1 1 1 3 5 5 5 2 1 6 7 6 7 9
14 18 18 24 23 21 20 20 19 19 20 18 17 16 13 7 4 5 5 4 4 2 6 2 4 2 5 8 9 9 4 4 4 4 1 2 3 4 3 2 4 3 1 6 5 3 7 6 6 3 6 6 6 8
11 17 21 24 22 21 20 20 19 19 21 19 16 12 11 8 3 4 6 4 3 3 5 3 2 3 2 4 3 4 5 3 3 1 1 0 2 4 3 3 5 4 5 7 12 12 6 2 5 6 9 8 10 9
7 13 20 21 21 20 21 21 20 18 21 19 17 13 12 17 9 5 4 5 3 5 5 4 2 2 2 2 3 2 3 4 5 0 2 1 3 3 2 6 6 5 9 8 3 5 7 8 8 8 8 10 10 8
7 21 22 21 22 20 23 23 22 18 21 21 17 13 5 5 3 2 4 7 4 5 4 3 5 4 2 2 2 3 3 3 3 2 2 3 2 2 6 3 6 9 6 11 9 12 10 10 8 7 8 7 9 5
14 23 22 24 23 21 24 24 22 23 24 18 5 5 3 1 6 4 9 6 7 5 4 3 2 2 4 1 2 3 1 3 2 5 1 3 4 3 9 6 3 7 15 14 13 6 7 6 7 6 5 6 6 6
16 22 23 24 23 23 24 24 26 27 16 3 3 3 1 1 5 5 3 4 1 3 1 3 3 5 1 4 3 1 2 1 2 2 4 1 3 2 6 10 9 8 7 3 7 8 6 8 7 7 7 7 7 7
19 22 23 24 24 24 26 26 29 8 3 6 7 6 3 4 4 6 3 0 2 6 2 5 4 4 1 4 4 4 2 2 3 1 4 2 2 3 5 8 10 10 9 12 9 9 9 10 8 9 8 8 6 7
20 22 23 24 24 24 26 26 11 11 16 4 6 4 5 2 4 7 8 3 2 4 4 3 3 4 3 4 3 4 3 5 1 3 3 2 5 6 7 7 11 10 10 11 11 11 12 12 10 9 9 7 8 8
21 23 21 22 23 22 25 9 19 8 6 4 5 6 5 5 5 6 7 6 5 5 6 5 4 4 2 4 3 4 2 2 3 1 6 3 4 4 5 5 8 6 7 10 10 10 11 11 10 8 7 7 8 8
23 21 20 17 20 20 15 11 7 2 3 4 5 5 5 4 2 3 3 3 1 7 5 5 4 4 2 4 1 4 4 3 5 4 3 4 6 6 6 7 9 6 5 7 7 9 10 9 9 8 6 7 8 8
24 18 5 16 17 16 11 7 5 4 3 2 3 4 1 4 2 2 3 3 2 4 4 4 4 3 2 5 3 5 6 5 4 3 3 5 6 6 6 8 7 6 6 8 9 10 9 9 10 10 9 8 7 8
12 4 17 20 15 17 15 6 4 5 3 3 2 2 3 4 4 3 4 4 5 6 4 3 5 6 4 4 3 4 5 3 3 4 3 6 6 6 7 7 7 6 7 8 9 8 8 8 9 9 10 6 5 5
6 14 23 23 12 7 3 4 4 4 5 3 4 3 3 3 2 3 2 3 5 4 3 3 4 3 4 6 4 4 3 3 4 4 4 5 6 7 8 8 7 7 9 8 7 7 8 7 7 5 7 5 5 5
15 17 26 22 9 5 4 3 2 3 1 1 3 3 4 2 2 1 3 4 4 2 4 3 4 2 2 1 3 3 6 4 4 3 3 5 7 7 7 8 9 9 10 9 9 6 5 6 6 5 5 4 4 3
23 19 19 17 8 3 4 2 1 1 1 1 3 3 3 2 2 2 4 4 3 3 4 3 3 2 3 2 3 4 4 5 6 5 2 2 4 8 8 7 6 8 6 6 6 5 5 5 3 4 4 4 4 4
16 8 13 7 4 4 2 2 3 1 2 4 1 2 1 1 3 3 3 3 4 2 2 1 3 2 3 2 4 4 6 7 5 5 7 5 4 7 5 5 7 4 4 5 6 5 5 4 4 5 5 4 5 5
4 11 5 3 2 2 3 2 3 1 4 2 3 3 3 2 3 2 2 4 0 2 3 3 3 3 2 3 3 4 6 6 5 5 5 7 6 6 5 6 6 5 5 4 5 6 5 4 5 6 7 6 6 5
10 5 4 2 4 5 2 2 4 2 4 2 3 4 2 1 0 1 2 1 3 2 3 4 4 3 4 4 4 4 6 9 5 5 6 5 5 5 5 5 5 7 5 3 6 6 6 5 6 7 6 6 4 4
6 5 4 2 3 2 2 2 2 3 3 2 3 4 4 2 1 2 3 4 3 3 3 5 6 4 2 4 3 4 4 6 6 5 6 7 6 4 5 4 4 4 5 6 7 7 6 6 6 6 6 6 4 3
7 4 5 5 2 4 2 1 3 3 2 3 4 1 2 3 2 3 4 4 5 5 5 5 5 5 6 4 4 4 5 8 8 8 5 7 7 6 6 5 5 6 7 9 9 8 7 6 6 6 6 6 7 6
5 4 3 5 3 4 4 5 5 6 4 3 3 3 3 3 3 6 5 3 4 6 8 8 7 6 5 6 7 6 6 6 8 7 5 8 8 8 9 9 8 2 2 8 9 10 9 7 6 6 5 6 7 7
3 2 2 2 2 3 4 3 3 4 4 6 5 4 4 6 7 5 1 2 3 3 5 7 6 7 6 6 5 6 6 7 7 6 7 6 5 6 8 9 9 4 4 7 8 9 8 8 7 6 6 5 5 5
2 1 5 2 3 2 4 2 4 6 4 4 5 5 11 10 6 1 1 1 3 4 5 4 5 5 5 6 6 7 6 9 10 10 8 7 5 4 5 5 6 8 5 7 7 8 7 6 6 7 6 6 4 3
0 1 4 3 3 2 2 4 4 1 1 3 6 4 4 0 1 1 2 2 3 5 7 7 5 5 6 5 6 7 8 9 13 14 10 6 3 1 2 7 6 5 6 7 7 8 8 7 6 6 6 5 4 5
2 2 4 2 4 3 4 2 2 1 1 2 3 2 2 1 1 1 1 1 4 3 5 6 6 8 8 9 9 6 3 2 8 10 10 9 6 5 5 6 6 6 6 7 7 8 12 10 9 7 6 5 5 5
1 2 4 3 2 2 2 1 2 2 2 2 2 4 3 3 2 1 1 2 5 6 8 8 6 7 9 9 10 9 4 1 6 8 8 8 8 7 5 5 6 6 6 7 8 8 8 8 7 7 6 7 7 7
2 3 5 3 2 4 3 1 1 1 1 2 2 2 3 1 2 2 2 4 7 8 9 9 9 7 4 4 4 3 7 7 6 8 13 10 9 8 8 8 6 6 7 7 6 7 8 9 7 7 8 8 7 6
2 3 3 3 2 1 3 3 1 1 2 2 3 5 4 5 7 3 2 2 5 9 9 7 6 7 8 7 7 6 8 7 9 10 12 12 12 11 9 9 9 10 11 9 8 8 8 9 7 7 8 8 9 6
Wind_Direction
209 223 238 201 167 166 168 172 179 180 186 192 184 178 174 176 178 172 257 229 123 113 324 4 22 64 55 65 128 244 50 356 44 86 127 218 154 255 43 272 162 133 126 176 78 84 306 263 349 101 203 150 168 135
209 242 169 182 169 166 164 167 177 179 182 185 178 172 182 183 189 179 263 284 115 94 175 317 53 57 95 144 127 22 149 137 165 94 72 119 37 11 109 205 354 55 172 164 152 197 44 356 102 84 141 162 171 128
209 206 186 176 168 160 162 168 175 174 185 176 169 170 173 177 185 180 224 294 57 77 2 37 20 354 22 13 212 114 7 164 66 167 144 117 91 115 85 342 49 360 26 96 86 340 89 84 35 68 68 124 136 148
217 174 188 156 153 157 161 168 174 175 172 167 154 158 157 166 170 177 128 304 85 107 105 288 331 15 352 28 40 67 118 59 92 62 80 96 122 115 181 185 118 203 15 80 60 26 89 31 60 130 76 84 87 84
198 176 180 151 152 156 161 166 162 158 157 153 150 152 154 164 172 154 92 36 99 122 151 176 358 349 12 48 55 49 62 74 63 53 56 234 247 62 1 64 267 197 156 123 226 187 137 204 156 125 112 124 133 122
161 160 163 156 152 156 158 160 155 148 149 148 149 153 160 155 135 68 35 333 360 86 90 79 272 24 28 68 65 47 38 53 77 113 206 288 283 100 93 211 251 143 111 179 188 132 110 118 95 81 114 117 108 106
123 168 153 149 149 151 155 150 143 138 150 144 147 136 129 153 85 103 174 222 296 77 84 54 18 327 93 64 35 39 28 47 83 78 58 94 321 73 96 195 271 333 102 101 121 110 76 162 141 93 100 94 88 85
146 173 147 144 147 148 150 148 144 145 139 132 127 135 130 101 104 51 323 337 92 83 70 103 289 49 17 62 49 27 50 24 7 152 359 71 342 54 297 255 277 324 115 93 60 46 116 110 94 87 92 102 89 92
207 152 147 146 147 143 151 144 149 140 130 134 135 142 81 48 73 173 258 34 42 108 122 102 136 205 358 77 103 28 92 51 287 63 277 84 327 232 237 278 305 161 158 135 100 99 102 109 115 111 107 94 105 102
170 142 141 147 149 149 150 146 142 140 140 142 88 73 53 274 114 70 17 28 13 341 49 121 157 158 105 85 42 77 29 149 157 247 75 111 249 296 337 276 251 127 132 132 109 111 116 117 134 133 124 107 122 129
142 138 142 152 148 149 143 144 141 141 141 118 107 93 116 148 56 39 60 92 307 18 206 202 150 133 294 107 158 135 169 129 99 246 134 250 281 34 11 41 36 72 90 52 110 102 122 138 139 123 104 94 102 107
141 136 143 146 143 146 141 147 147 142 142 151 114 110 86 57 60 96 153 87 168 208 187 143 170 145 136 103 89 334 97 41 218 288 82 289 211 73 60 47 41 45 68 67 62 89 86 86 101 101 97 101 99 106
139 134 144 140 145 145 147 148 159 106 130 98 64 68 93 306 89 160 175 218 183 177 179 145 104 126 72 62 79 91 122 207 20 49 226 211 122 113 104 87 70 66 70 79 73 72 81 80 71 89 100 98 104 106
130 134 139 133 139 146 160 138 131 129 82 104 133 131 149 179 205 185 178 173 214 145 135 118 94 117 124 74 133 103 203 112 69 179 233 165 136 118 91 88 100 72 67 83 85 86 87 91 89 83 92 107 123 122
125 133 139 136 141 146 94 75 89 88 103 109 93 144 189 196 183 176 156 119 131 134 118 93 55 89 54 102 188 136 160 215 207 225 203 158 128 125 111 115 116 104 100 98 103 102 100 100 103 102 111 122 124 123
123 113 106 126 117 104 103 76 42 4 21 71 112 86 135 85 11 70 128 131 152 122 84 67 110 100 136 143 137 195 165 213 228 184 143 134 133 132 127 130 126 130 134 129 128 125 122 126 130 127 125 126 129 136
70 66 142 132 85 88 52 64 21 57 59 21 0 33 110 97 157 182 136 153 139 118 149 139 123 189 115 111 172 189 199 205 164 126 121 122 132 136 127 130 130 136 132 127 122 118 115 120 127 125 123 132 126 122
88 123 122 110 78 55 44 38 49 35 24 331 65 339 63 34 78 46 67 115 102 145 130 175 127 140 159 157 213 187 140 122 97 121 119 117 121 130 136 133 137 136 130 125 118 121 127 131 123 116 123 132 121 130
130 126 116 103 93 76 77 26 49 88 296 309 93 37 62 61 1 11 69 54 91 129 87 40 83 114 173 190 142 149 145 144 144 120 110 131 130 122 117 124 130 134 134 136 136 145 148 143 137 137 137 139 142 148
119 122 121 90 65 80 76 35 16 115 113 230 49 54 75 84 310 19 34 31 66 78 49 77 149 181 163 221 163 142 138 132 128 112 98 98 131 125 136 135 135 131 130 134 133 117 120 109 119 130 138 152 141 142
99 87 78 71 27 54 95 147 57 113 93 79 150 67 46 32 45 46 22 328 52 112 120 151 125 86 58 48 100 113 134 147 161 154 165 153 159 133 135 128 117 124 134 139 134 123 115 132 132 126 115 100 96 103
83 78 81 30 56 44 78 20 125 84 62 121 75 72 52 18 13 350 269 46 185 208 141 139 151 143 121 120 133 147 147 124 120 111 107 129 145 145 147 147 146 152 145 139 132 132 123 120 113 115 119 117 117 121
88 67 66 54 63 36 39 2 83 86 101 133 82 103 94 82 232 14 38 264 260 205 160 151 159 154 153 149 123 114 135 136 138 145 149 147 130 131 139 142 142 142 134 124 126 127 125 113 104 103 98 108 110 109
40 65 89 90 81 89 0 14 95 92 94 144 101 93 143 126 119 65 238 237 233 149 148 151 150 136 106 120 140 152 147 138 131 128 142 137 140 134 134 128 120 116 124 123 120 120 123 119 115 115 118 118 125 115
81 326 94 82 76 96 108 106 76 67 124 148 88 92 149 100 126 210 240 252 177 182 167 168 173 173 174 148 141 151 158 153 150 144 144 131 116 109 104 105 108 122 132 124 130 128 123 129 132 141 146 141 139 144
83 254 124 166 158 127 162 118 152 178 134 111 173 151 132 154 171 237 231 201 184 182 178 180 178 166 170 167 157 158 154 147 141 136 134 144 149 146 143 142 140 139 146 134 135 133 139 145 147 136 131 131 138 135
90 266 228 249 127 101 61 81 112 112 152 172 166 150 158 182 222 242 212 195 159 186 160 178 175 171 160 148 128 133 136 143 144 131 130 137 134 151 158 155 157 158 139 122 125 139 148 151 134 132 128 123 127 132
234 168 145 233 73 109 138 113 142 183 185 168 114 171 175 194 227 251 237 295 150 129 137 138 132 140 145 148 149 144 123 112 105 101 91 62 49 91 102 96 107 116 115 125 129 129 135 143 141 136 129 124 118 123
57 131 87 35 24 53 142 172 195 87 347 163 158 205 216 291 351 330 342 344 166 142 144 140 129 113 107 111 111 124 136 144 147 143 138 136 124 50 110 122 123 119 123 129 119 134 144 125 125 123 116 124 123 118
237 133 92 61 106 216 240 165 169 253 67 124 123 78 18 294 268 246 260 192 169 144 132 130 135 136 140 138 136 119 26 149 160 150 153 168 174 138 141 129 124 130 127 121 121 116 106 109 115 122 129 127 123 119
157 82 87 93 183 257 235 286 344 64 54 58 8 120 203 241 285 289 282 138 128 133 133 138 138 148 146 150 154 148 137 340 120 115 113 120 133 134 126 116 121 122 122 125 130 132 132 129 131 144 148 135 134 129
47 128 117 104 261 293 22 97 176 96 335 72 300 53 12 85 244 267 219 154 156 158 159 155 157 160 137 110 105 100 108 127 133 134 134 140 140 133 122 118 127 130 129 125 120 128 131 148 156 156 172 159 163 140
56 59 76 86 51 311 283 89 70 336 348 204 234 190 189 180 224 224 168 206 180 163 163 157 134 134 137 131 130 123 121 126 132 130 133 133 132 128 127 148 154 153 152 153 152 155 161 148 155 162 168 171 172 137